[[{"header":{"parameterUnit":"m.s-1","parameterCategory":2,"la1":30.2991,"la2":30.254,"lo1":-89.0895,"lo2":-89.0444,"dy":0.0017,"dx":0.0017,"nx":28,"ny":28,"refTime":"2023-10-19T03:00:00:Z","depth":"0","parameterNumber":2,"parameterNumberName":"U-component_of_CURRENTS"},"data":[0,0,0,0,0,0,0,0,0,0,0,0,0,0,0,0,0,0,0,0,0,0,0,0,0,0,0,0,0,0,0,0,0,0,0,0,0,0,0,0,0,0,0,0,0,0,0,0,0,0,0,0,0,0,0,0,0,0,-0.3475,-0.3475,0,-0.3466,-0.3466,-0.3465,-0.3327,-0.3324,-0.3321,-0.3318,-0.3174,-0.3173,-0.3172,0,0,0,0,0,0,0,0,0,0,0,0,0,-0.3256,-0.3261,-0.3475,-0.3475,-0.3475,-0.3466,-0.3466,-0.3465,-0.3328,-0.3324,-0.332,-0.3316,-0.3174,-0.3173,-0.3172,0,0,0,0,0,0,0,0,0,0,0,0,0,-0.3306,-0.3263,-0.3475,-0.3408,-0.3403,-0.3466,-0.3466,-0.3465,-0.3328,-0.3324,-0.3319,-0.3315,-0.3174,-0.3173,-0.3172,-0.3259,0,0,-0.3168,-0.3167,0,0,0,0,0,0,0,0,-0.3304,-0.3314,-0.3418,-0.3413,-0.3407,-0.3396,-0.3336,-0.3391,-0.333,-0.3353,-0.3318,-0.3312,-0.3241,-0.3234,-0.324,-0.3252,-0.3246,-0.3167,-0.3167,-0.3166,-0.3166,0,0,0,0,0,0,0,-0.3301,-0.3313,-0.3467,-0.3419,-0.3412,-0.3339,-0.3342,-0.3345,-0.3318,-0.335,-0.3341,-0.3348,-0.3236,-0.3242,-0.3235,-0.3244,-0.3167,-0.3166,-0.3165,-0.3165,-0.3275,-0.3278,0,0,0,0,0,0,-0.3322,-0.3312,-0.3468,-0.3468,-0.3347,-0.3348,-0.335,-0.3401,-0.3321,-0.3307,-0.3352,-0.3342,-0.3246,-0.3237,-0.3229,-0.3247,-0.3166,-0.3165,-0.3164,-0.3271,-0.3276,-0.328,0,0,0,0,0,0,-0.3318,-0.3338,-0.3468,-0.3388,-0.34,-0.3358,-0.3415,-0.3404,-0.3392,-0.3325,-0.3305,-0.335,-0.3242,-0.3231,-0.3244,-0.3242,-0.3164,-0.3163,-0.3267,-0.3273,-0.3278,-0.3333,0,0,0,0,0,0,-0.3313,-0.3338,-0.3378,-0.3392,-0.3406,-0.351,-0.342,-0.3407,-0.3406,-0.3392,-0.3318,-0.33,-0.3237,-0.3247,-0.3243,-0.3239,-0.3162,-0.3262,-0.3269,-0.3276,-0.3326,-0.334,-0.3351,0,0,0,0,0,-0.3306,-0.3391,-0.3382,-0.34,-0.3466,-0.3513,-0.3514,-0.3461,-0.3411,-0.3428,-0.3385,-0.3301,-0.3287,-0.325,-0.3244,-0.3239,-0.3259,-0.3267,-0.3275,-0.3321,-0.3337,-0.3351,0,0,0,0,0,0,-0.3311,-0.3386,-0.3375,-0.3476,-0.3492,-0.349,-0.3506,-0.348,-0.3465,-0.3441,-0.336,-0.3344,-0.3352,-0.3323,-0.3285,-0.3302,-0.3256,-0.3264,-0.3293,-0.3308,-0.332,-0.3248,-0.3161,0,0,0,0,0,-0.3341,-0.3421,-0.3458,-0.3532,-0.3546,-0.353,-0.3539,-0.3515,-0.3507,-0.3492,-0.3447,-0.341,-0.3395,-0.337,-0.3364,-0.3384,-0.3294,-0.3381,-0.3394,-0.3404,-0.335,-0.3234,-0.3227,-0.3307,-0.3307,-0.3307,0,0,-0.3362,-0.3412,-0.3455,-0.3537,-0.3538,-0.3567,-0.3522,-0.3554,-0.3555,-0.3485,-0.3477,-0.3462,-0.3421,-0.343,-0.3429,-0.339,-0.3353,-0.3414,-0.3422,-0.3361,-0.3241,-0.3232,-0.3224,-0.3313,-0.3312,-0.3311,0,0,-0.3415,-0.3489,-0.3547,-0.3576,-0.3607,-0.361,-0.3624,-0.3637,-0.3614,-0.3643,-0.3579,-0.3564,-0.3563,-0.3505,-0.348,-0.3571,-0.3436,-0.3586,-0.3558,-0.345,-0.3438,-0.3427,-0.3356,-0.3337,-0.3572,-0.3572,-0.3572,0,-0.3417,-0.3492,-0.3565,-0.3608,-0.3597,-0.363,-0.363,-0.3664,-0.3673,-0.3626,-0.3646,-0.3593,-0.3581,-0.3518,-0.3552,-0.3583,-0.3507,-0.3493,-0.3454,-0.3441,-0.3428,-0.3356,-0.3335,-0.3576,-0.3575,-0.3575,-0.3575,0,-0.3494,-0.3532,-0.3568,-0.3623,-0.3647,-0.3665,-0.3701,-0.3717,-0.3705,-0.3686,-0.365,-0.3658,-0.3581,-0.3619,-0.361,-0.3527,-0.3502,-0.349,-0.3389,-0.3421,-0.3348,-0.3325,-0.3581,-0.358,-0.3579,-0.3578,0,0,-0.3496,-0.3591,-0.3586,-0.356,-0.3629,-0.3639,-0.3673,-0.3647,-0.3603,-0.3651,-0.3547,-0.3594,-0.3558,-0.3531,-0.3527,-0.346,-0.3367,-0.3436,-0.3429,-0.3318,-0.3128,-0.3063,-0.3031,-0.3325,-0.332,-0.3317,-0.3129,0,-0.3476,-0.3511,-0.3572,-0.3556,-0.3543,-0.3573,-0.3588,-0.3588,-0.358,-0.3526,-0.3514,-0.3469,-0.354,-0.3498,-0.3445,-0.3378,-0.3299,-0.3418,-0.3152,-0.3145,-0.304,-0.2998,-0.2886,-0.2702,-0.3105,-0.3101,-0.3098,0,-0.3482,-0.3483,-0.345,-0.3435,-0.3431,-0.3452,-0.3384,-0.3402,-0.3375,-0.3369,-0.3318,-0.3311,-0.3247,-0.3308,-0.3165,-0.323,-0.3166,-0.3132,-0.3123,-0.3,-0.3031,-0.273,-0.2643,-0.2641,-0.3061,-0.3064,-0.3067,0,-0.3356,-0.3381,-0.3315,-0.3319,-0.3344,-0.3309,-0.3322,-0.3316,-0.3275,-0.324,-0.3192,-0.3139,-0.3088,-0.3009,-0.2992,-0.304,-0.2817,-0.2867,-0.2745,-0.2743,-0.2557,-0.2545,-0.2376,-0.2707,-0.2708,-0.2708,-0.2709,0,-0.3271,-0.3221,-0.3253,-0.3216,-0.3115,-0.3196,-0.3097,-0.3119,-0.3105,-0.3041,-0.3082,-0.3018,-0.3002,-0.2906,-0.289,-0.274,-0.2725,-0.2689,-0.2657,-0.2589,-0.2581,-0.25,-0.2564,-0.2701,-0.2703,-0.2704,-0.2705,0,-0.3108,-0.3154,-0.3061,-0.3056,-0.3047,-0.2964,-0.2962,-0.2926,-0.2955,-0.2863,-0.2846,-0.2855,-0.2758,-0.2733,-0.2602,-0.2587,-0.2424,-0.2423,-0.2372,-0.2336,-0.2226,-0.23,-0.207,-0.2011,-0.2224,-0.2221,-0.2218,0,-0.3012,-0.2951,-0.289,-0.2845,-0.283,-0.2762,-0.2746,-0.2807,-0.2793,-0.2772,-0.2724,-0.2629,-0.2551,-0.2361,-0.2299,-0.2183,-0.2253,-0.2037,-0.2104,-0.2146,-0.2205,-0.2282,-0.2256,-0.1913,-0.1908,-0.1904,-0.1901,0,-0.278,-0.2768,-0.2708,-0.2618,-0.2581,-0.2506,-0.2514,-0.2478,-0.2562,-0.2519,-0.2468,-0.2393,-0.2252,-0.2092,-0.1972,-0.1911,-0.1997,-0.1947,-0.1962,-0.1896,-0.1986,-0.194,-0.2168,-0.1864,-0.1868,-0.1871,-0.1873,-0.1874,-0.2581,-0.2505,-0.2473,-0.2346,-0.2336,-0.228,-0.215,-0.2215,-0.2145,-0.2029,-0.2182,-0.2006,-0.1978,-0.1777,-0.1717,-0.1594,-0.1696,-0.1567,-0.164,-0.1705,-0.1666,-0.1835,-0.1525,-0.1526,-0.1528,-0.1529,-0.153,0,-0.2269,-0.2286,-0.2222,-0.2109,-0.2012,-0.2066,-0.2005,-0.1857,-0.1722,-0.1684,-0.1613,-0.16,-0.1492,-0.1472,-0.1419,-0.1341,-0.1333,-0.1313,-0.1392,-0.1369,-0.1451,-0.1457,-0.115,-0.115,-0.115,-0.115,-0.115,-0.115,-0.2123,-0.2006,-0.1995,-0.1785,-0.1733,-0.1519,-0.1418,-0.128,-0.1179,-0.0978,-0.0913,-0.0902,-0.1129,-0.1411,-0.1363,-0.1278,-0.1285,-0.1211,-0.1274,-0.1367,-0.1398,-0.1428,-0.1445,-0.114,-0.114,-0.1115,-0.1116,-0.1116]},{"header":{"parameterUnit":"m.s-1","parameterCategory":2,"la1":30.2991,"la2":30.254,"lo1":-89.0895,"lo2":-89.0444,"dy":0.0017,"dx":0.0017,"nx":28,"ny":28,"refTime":"2023-10-19T03:00:00:Z","depth":"0","parameterNumber":3,"parameterNumberName":"V-component_of_CURRENTS"},"data":[0,0,0,0,0,0,0,0,0,0,0,0,0,0,0,0,0,0,0,0,0,0,0,0,0,0,0,0,0,0,0,0,0,0,0,0,0,0,0,0,0,0,0,0,0,0,0,0,0,0,0,0,0,0,0,0,0,0,0.0886,0.0887,0,0.0994,0.0995,0.0997,0.1078,0.1079,0.108,0.108,0.1226,0.123,0.1233,0,0,0,0,0,0,0,0,0,0,0,0,0,0.082,0.082,0.0886,0.0887,0.0889,0.0994,0.0996,0.0997,0.1078,0.1079,0.108,0.1081,0.1225,0.1229,0.1233,0,0,0,0,0,0,0,0,0,0,0,0,0,0.088,0.082,0.0886,0.0942,0.0948,0.0994,0.0996,0.0997,0.1078,0.1079,0.108,0.1081,0.1224,0.1229,0.1234,0.124,0,0,0.1248,0.125,0,0,0,0,0,0,0,0,0.0876,0.0882,0.0932,0.0938,0.0945,0.1024,0.1026,0.108,0.1077,0.1028,0.108,0.1082,0.1162,0.1172,0.1188,0.1246,0.1253,0.1248,0.1251,0.1253,0.1255,0,0,0,0,0,0,0,0.0872,0.0878,0.0928,0.0934,0.0942,0.0986,0.0995,0.1037,0.1087,0.1032,0.1039,0.1051,0.1166,0.1183,0.1193,0.1255,0.1248,0.1253,0.1255,0.1257,0.1314,0.1313,0,0,0,0,0,0,0.0854,0.0874,0.0925,0.0932,0.0913,0.0986,0.0996,0.0997,0.1086,0.1101,0.105,0.1055,0.1175,0.1187,0.1198,0.1175,0.1253,0.1258,0.1261,0.1316,0.1314,0.1313,0,0,0,0,0,0,0.0852,0.0857,0.0921,0.0906,0.0918,0.0986,0.0986,0.0999,0.1015,0.1099,0.1115,0.1053,0.1176,0.1191,0.1218,0.1183,0.126,0.1264,0.1317,0.1315,0.1313,0.1153,0,0,0,0,0,0,0.0849,0.0855,0.0839,0.0905,0.0918,0.0914,0.0986,0.1,0.1021,0.1028,0.1107,0.1122,0.1178,0.121,0.1222,0.1191,0.1268,0.1319,0.1316,0.1314,0.116,0.1146,0.1134,0,0,0,0,0,0.0846,0.0807,0.0837,0.0843,0.0896,0.0911,0.092,0.0975,0.102,0.0999,0.1064,0.112,0.1203,0.1212,0.1227,0.1197,0.132,0.1317,0.1314,0.1166,0.1149,0.1134,0,0,0,0,0,0,0.0754,0.0814,0.0848,0.0825,0.0855,0.0925,0.0905,0.0963,0.0999,0.1005,0.1102,0.1119,0.1126,0.1186,0.1194,0.1207,0.1271,0.1271,0.1153,0.1138,0.1125,0.113,0.1272,0,0,0,0,0,0.073,0.0719,0.0785,0.0758,0.0767,0.0839,0.0853,0.0892,0.0941,0.0959,0.102,0.1083,0.1125,0.115,0.1188,0.1199,0.124,0.1191,0.1177,0.1165,0.118,0.1199,0.1188,0.1303,0.1303,0.1303,0,0,0.0684,0.0715,0.0707,0.0738,0.0764,0.0755,0.0847,0.0845,0.085,0.0967,0.0974,0.1031,0.1115,0.1118,0.1128,0.1166,0.1145,0.1162,0.1151,0.1173,0.1195,0.1184,0.1174,0.1301,0.1301,0.1301,0,0,0.0563,0.0612,0.0553,0.058,0.0612,0.067,0.0666,0.0727,0.0762,0.0781,0.0865,0.0907,0.0968,0.1025,0.1064,0.1007,0.1067,0.1011,0.0957,0.0973,0.0964,0.0956,0.0948,0.0942,0.1013,0.1012,0.1012,0,0.0499,0.0458,0.0533,0.0491,0.0511,0.0626,0.0583,0.063,0.0696,0.0725,0.0755,0.0866,0.0928,0.097,0.0952,0.0977,0.0987,0.1005,0.0954,0.0948,0.0943,0.0938,0.0932,0.1004,0.1005,0.1006,0.1007,0,0.0346,0.0323,0.0287,0.0293,0.0321,0.0301,0.0395,0.0423,0.0497,0.0562,0.061,0.0702,0.0778,0.0795,0.0861,0.0863,0.0878,0.0922,0.0988,0.0922,0.092,0.0917,0.0993,0.0996,0.0998,0.1,0,0,0.0187,0.0179,0.0167,0.0161,0.0228,0.0239,0.0256,0.0316,0.0341,0.0416,0.0435,0.0536,0.0612,0.0665,0.0749,0.0783,0.0742,0.0832,0.0837,0.0814,0.0748,0.0816,0.082,0.0767,0.0766,0.0766,0.0744,0,0.0044,-0.0068,-0.0015,-0.0073,-0.0098,0.0035,0.0057,0.0138,0.0219,0.0259,0.039,0.0433,0.0556,0.0581,0.0634,0.0709,0.0736,0.0744,0.0829,0.0832,0.0892,0.082,0.0876,0.0867,0.0742,0.0741,0.0741,0,-0.0112,-0.0152,-0.0256,-0.0208,-0.0206,-0.0207,-0.0111,-0.0082,0.0029,0.0091,0.018,0.0276,0.0356,0.0453,0.0574,0.0565,0.065,0.0719,0.072,0.085,0.0897,0.0926,0.0869,0.1038,0.0738,0.0738,0.0738,0,-0.0233,-0.0295,-0.0371,-0.0364,-0.0314,-0.0308,-0.0256,-0.0144,-0.011,-0.0026,-0.0005,0.0121,0.0173,0.029,0.0485,0.0497,0.0606,0.0634,0.078,0.0784,0.089,0.0905,0.1009,0.0715,0.0715,0.0715,0.0716,0,-0.0368,-0.0416,-0.0437,-0.047,-0.0511,-0.0424,-0.0431,-0.0351,-0.0276,-0.0235,-0.0103,-0.0044,0.0137,0.0249,0.0404,0.0592,0.0546,0.0763,0.0787,0.0831,0.0841,0.1045,0.1125,0.0715,0.0715,0.0715,0.0715,0,-0.0471,-0.05,-0.0572,-0.0575,-0.0575,-0.0595,-0.0539,-0.0529,-0.0441,-0.04,-0.0382,-0.0209,-0.0043,0.0156,0.0345,0.0495,0.0766,0.0748,0.0783,0.0814,0.1085,0.1152,0.1286,0.1383,0.0844,0.0846,0.0847,0,-0.0516,-0.0581,-0.0661,-0.0699,-0.0706,-0.0721,-0.0712,-0.0624,-0.0595,-0.046,-0.0444,-0.0291,-0.0108,0.0181,0.0453,0.0698,0.0859,0.0884,0.0943,0.1107,0.1199,0.1236,0.131,0.0989,0.0991,0.0993,0.0994,0,-0.0566,-0.062,-0.0686,-0.0786,-0.082,-0.085,-0.0828,-0.0824,-0.0691,-0.0579,-0.0408,-0.0272,-0.0005,0.033,0.0637,0.0791,0.1009,0.0931,0.1097,0.1324,0.1375,0.1478,0.0976,0.1012,0.101,0.1009,0.1008,0.1007,-0.0567,-0.0634,-0.0727,-0.0799,-0.087,-0.0892,-0.0841,-0.0775,-0.0642,-0.0362,-0.0313,0.0037,0.0287,0.0743,0.0916,0.1253,0.1194,0.1357,0.1417,0.1432,0.1568,0.1102,0.1182,0.1181,0.118,0.118,0.1179,0,-0.0485,-0.0572,-0.069,-0.0753,-0.0803,-0.085,-0.0824,-0.0706,-0.0451,-0.022,0.0063,0.0546,0.0901,0.1159,0.1538,0.1733,0.1777,0.1812,0.1884,0.1931,0.1516,0.1571,0.1746,0.1746,0.1746,0.1746,0.1746,0.1746,-0.0436,-0.0499,-0.0572,-0.0612,-0.0665,-0.0617,-0.0564,-0.041,-0.0227,0.0272,0.0678,0.0917,0.1226,0.1768,0.2138,0.2169,0.2362,0.2327,0.2416,0.215,0.2112,0.2076,0.2148,0.2442,0.2442,0.2822,0.2826,0.2829]}],[{"header":{"parameterUnit":"m.s-1","parameterCategory":2,"la1":30.2991,"la2":30.254,"lo1":-89.0895,"lo2":-89.0444,"dy":0.0017,"dx":0.0017,"nx":28,"ny":28,"refTime":"2023-10-19T03:00:00:Z","depth":"2","parameterNumber":2,"parameterNumberName":"U-component_of_CURRENTS"},"data":[0,0,0,0,0,0,0,0,0,0,0,0,0,0,0,0,0,0,0,0,0,0,0,0,0,0,0,0,0,0,0,0,0,0,0,0,0,0,0,0,0,0,0,0,0,0,0,0,0,0,0,0,0,0,0,0,0,0,-0.2432,-0.2434,0,-0.2599,-0.2601,-0.2603,-0.2614,-0.2612,-0.261,-0.2609,-0.2819,-0.2826,-0.2833,0,0,0,0,0,0,0,0,0,0,0,0,0,-0.2283,-0.2285,-0.2432,-0.2434,-0.2436,-0.2599,-0.2601,-0.2603,-0.2614,-0.2612,-0.261,-0.2608,-0.2816,-0.2825,-0.2834,0,0,0,0,0,0,0,0,0,0,0,0,0,-0.2388,-0.2286,-0.2431,-0.2461,-0.2466,-0.2598,-0.2601,-0.2604,-0.2615,-0.2612,-0.2609,-0.2607,-0.2813,-0.2824,-0.2835,-0.2958,0,0,-0.2868,-0.2873,0,0,0,0,0,0,0,0,-0.2382,-0.2394,-0.2455,-0.246,-0.2465,-0.2583,-0.2626,-0.2724,-0.2616,-0.2558,-0.2609,-0.2605,-0.2746,-0.2762,-0.2799,-0.2968,-0.2977,-0.2869,-0.2876,-0.2881,-0.2884,0,0,0,0,0,0,0,-0.2375,-0.2387,-0.2498,-0.2457,-0.2464,-0.2522,-0.2532,-0.2645,-0.2666,-0.2563,-0.2564,-0.2584,-0.2749,-0.2788,-0.2804,-0.298,-0.2869,-0.2879,-0.2885,-0.289,-0.322,-0.3222,0,0,0,0,0,0,-0.235,-0.238,-0.2492,-0.2503,-0.2416,-0.2526,-0.2538,-0.2548,-0.2664,-0.2679,-0.2586,-0.2584,-0.2771,-0.2791,-0.2812,-0.2954,-0.288,-0.2891,-0.2897,-0.3217,-0.322,-0.3222,0,0,0,0,0,0,-0.2346,-0.2358,-0.2486,-0.2446,-0.2466,-0.253,-0.2543,-0.2552,-0.261,-0.2681,-0.2696,-0.2635,-0.277,-0.2796,-0.2934,-0.2962,-0.2896,-0.2906,-0.3215,-0.3218,-0.3221,-0.3247,0,0,0,0,0,0,-0.2341,-0.2355,-0.2365,-0.2444,-0.2467,-0.2587,-0.2546,-0.2558,-0.2626,-0.2625,-0.2729,-0.2744,-0.2769,-0.2918,-0.2945,-0.2976,-0.2914,-0.3212,-0.3216,-0.322,-0.3243,-0.325,-0.3257,0,0,0,0,0,-0.2335,-0.2359,-0.2364,-0.2379,-0.2474,-0.259,-0.261,-0.2645,-0.2631,-0.2682,-0.2743,-0.2741,-0.296,-0.2931,-0.2962,-0.2996,-0.321,-0.3215,-0.322,-0.324,-0.3249,-0.3257,0,0,0,0,0,0,-0.2302,-0.2365,-0.2372,-0.2413,-0.2504,-0.2592,-0.264,-0.2672,-0.2763,-0.2762,-0.2809,-0.2832,-0.2951,-0.2988,-0.2953,-0.31,-0.3072,-0.3083,-0.3076,-0.3085,-0.3092,-0.3002,-0.2923,0,0,0,0,0,-0.23,-0.2322,-0.2415,-0.2448,-0.2498,-0.2577,-0.2629,-0.2668,-0.2752,-0.2788,-0.2856,-0.2923,-0.2998,-0.3051,-0.3129,-0.3249,-0.3179,-0.3278,-0.3285,-0.329,-0.3238,-0.3141,-0.3131,-0.3239,-0.3239,-0.3239,0,0,-0.2277,-0.233,-0.2331,-0.2442,-0.2508,-0.2593,-0.2603,-0.2702,-0.2749,-0.2804,-0.2898,-0.2972,-0.3038,-0.3143,-0.3196,-0.3178,-0.324,-0.3297,-0.3301,-0.3244,-0.3144,-0.3133,-0.3122,-0.3242,-0.3241,-0.3241,0,0,-0.2294,-0.2317,-0.2365,-0.2446,-0.257,-0.2624,-0.2661,-0.278,-0.2809,-0.2939,-0.2955,-0.3028,-0.3193,-0.3201,-0.3234,-0.3333,-0.3282,-0.3387,-0.3353,-0.3262,-0.3249,-0.3237,-0.3185,-0.3167,-0.3385,-0.3385,-0.3385,0,-0.2279,-0.2338,-0.2404,-0.2499,-0.2551,-0.2638,-0.2718,-0.2776,-0.2917,-0.2925,-0.2969,-0.3107,-0.319,-0.3228,-0.327,-0.3339,-0.3295,-0.3318,-0.3262,-0.3248,-0.3235,-0.3183,-0.3164,-0.3387,-0.3386,-0.3386,-0.3386,0,-0.2361,-0.2399,-0.2444,-0.2559,-0.2641,-0.2723,-0.2815,-0.2874,-0.2925,-0.2963,-0.3033,-0.3131,-0.3176,-0.3245,-0.3308,-0.3278,-0.3282,-0.328,-0.3222,-0.3224,-0.3173,-0.3152,-0.3389,-0.3389,-0.3388,-0.3388,0,0,-0.2326,-0.2466,-0.2475,-0.2507,-0.2671,-0.2732,-0.2808,-0.2877,-0.2864,-0.2985,-0.297,-0.3111,-0.312,-0.3153,-0.3221,-0.3181,-0.3114,-0.3211,-0.3205,-0.3124,-0.2935,-0.2873,-0.2844,-0.3103,-0.3098,-0.3095,-0.2951,0,-0.2364,-0.248,-0.2566,-0.2642,-0.2693,-0.2776,-0.2821,-0.2883,-0.2927,-0.2938,-0.2976,-0.302,-0.3094,-0.3132,-0.3093,-0.3126,-0.3053,-0.3154,-0.2971,-0.2965,-0.2879,-0.2814,-0.265,-0.25,-0.293,-0.2926,-0.2924,0,-0.2405,-0.2471,-0.2559,-0.2614,-0.265,-0.271,-0.2738,-0.28,-0.2821,-0.2851,-0.2857,-0.2902,-0.2905,-0.2956,-0.2882,-0.295,-0.2919,-0.292,-0.2914,-0.2808,-0.286,-0.2561,-0.2445,-0.2888,-0.2891,-0.2894,-0.2896,0,-0.2301,-0.2431,-0.2476,-0.2517,-0.2638,-0.2656,-0.2704,-0.2749,-0.2769,-0.2774,-0.2784,-0.2769,-0.2781,-0.2721,-0.2761,-0.2811,-0.2655,-0.2707,-0.2593,-0.2591,-0.2382,-0.2367,-0.2553,-0.2553,-0.2553,-0.2554,-0.2554,0,-0.227,-0.229,-0.2415,-0.2439,-0.246,-0.257,-0.2576,-0.2609,-0.2651,-0.2653,-0.2711,-0.2697,-0.2719,-0.2674,-0.2679,-0.2567,-0.2558,-0.2531,-0.2515,-0.2399,-0.2389,-0.2667,-0.2683,-0.2548,-0.255,-0.2551,-0.2552,0,-0.2143,-0.2232,-0.2277,-0.2389,-0.2413,-0.2424,-0.2515,-0.2509,-0.2562,-0.2563,-0.2573,-0.2617,-0.2556,-0.255,-0.2473,-0.2449,-0.2367,-0.2315,-0.2206,-0.2178,-0.2391,-0.241,-0.2151,-0.2146,-0.2143,-0.214,-0.2137,0,-0.209,-0.2107,-0.2217,-0.2238,-0.2292,-0.2329,-0.2354,-0.2443,-0.2457,-0.251,-0.2499,-0.2466,-0.2409,-0.2276,-0.221,-0.2104,-0.2219,-0.1914,-0.1952,-0.2321,-0.2333,-0.2358,-0.2381,-0.1716,-0.171,-0.1706,-0.1702,0,-0.1986,-0.2033,-0.2074,-0.2114,-0.2149,-0.2186,-0.2228,-0.2232,-0.2335,-0.2341,-0.2325,-0.2283,-0.2166,-0.1989,-0.1872,-0.1808,-0.1928,-0.1815,-0.2144,-0.1864,-0.1903,-0.192,-0.1957,-0.166,-0.1664,-0.1668,-0.167,-0.1671,-0.1896,-0.1889,-0.1937,-0.1961,-0.2001,-0.2004,-0.1967,-0.2037,-0.2035,-0.2024,-0.2108,-0.1989,-0.194,-0.1661,-0.1556,-0.1478,-0.1616,-0.1574,-0.1591,-0.1612,-0.1606,-0.1639,-0.1348,-0.135,-0.1352,-0.1354,-0.1355,0,-0.1753,-0.1753,-0.1775,-0.178,-0.1754,-0.1833,-0.1849,-0.1794,-0.1739,-0.179,-0.1761,-0.1558,-0.1415,-0.1363,-0.117,-0.1135,-0.1144,-0.1099,-0.1126,-0.1166,-0.1203,-0.118,-0.0806,-0.0805,-0.0803,-0.0802,0,0,-0.1672,-0.1622,-0.1628,-0.1519,-0.1526,-0.1431,-0.1406,-0.1375,-0.1369,-0.1305,-0.1269,-0.1368,-0.1336,-0.1097,-0.102,-0.0884,-0.1021,-0.0832,-0.1269,-0.1341,-0.1376,-0.1464,-0.1472,0,0,0,0,0]},{"header":{"parameterUnit":"m.s-1","parameterCategory":2,"la1":30.2991,"la2":30.254,"lo1":-89.0895,"lo2":-89.0444,"dy":0.0017,"dx":0.0017,"nx":28,"ny":28,"refTime":"2023-10-19T03:00:00:Z","depth":"2","parameterNumber":3,"parameterNumberName":"V-component_of_CURRENTS"},"data":[0,0,0,0,0,0,0,0,0,0,0,0,0,0,0,0,0,0,0,0,0,0,0,0,0,0,0,0,0,0,0,0,0,0,0,0,0,0,0,0,0,0,0,0,0,0,0,0,0,0,0,0,0,0,0,0,0,0,-0.0596,-0.0595,0,-0.0515,-0.0514,-0.0512,-0.0429,-0.0428,-0.0427,-0.0427,-0.0212,-0.0207,-0.0202,0,0,0,0,0,0,0,0,0,0,0,0,0,-0.0604,-0.0604,-0.0596,-0.0595,-0.0594,-0.0515,-0.0514,-0.0512,-0.0429,-0.0428,-0.0427,-0.0426,-0.0214,-0.0208,-0.0202,0,0,0,0,0,0,0,0,0,0,0,0,0,-0.0565,-0.0604,-0.0596,-0.0547,-0.0542,-0.0516,-0.0514,-0.0512,-0.0429,-0.0428,-0.0427,-0.0426,-0.0216,-0.0209,-0.0201,-0.0175,0,0,-0.0178,-0.0175,0,0,0,0,0,0,0,0,-0.0567,-0.0564,-0.0555,-0.0551,-0.0545,-0.0485,-0.0438,-0.0394,-0.0429,-0.0467,-0.0427,-0.0426,-0.0295,-0.0281,-0.0263,-0.0164,-0.0155,-0.0177,-0.0173,-0.0169,-0.0167,0,0,0,0,0,0,0,-0.057,-0.0567,-0.0558,-0.0555,-0.0549,-0.0505,-0.0498,-0.0429,-0.0381,-0.0463,-0.0458,-0.0458,-0.0291,-0.0271,-0.0257,-0.0152,-0.0177,-0.0171,-0.0166,-0.0163,0.0032,0.0032,0,0,0,0,0,0,-0.0596,-0.057,-0.0561,-0.0556,-0.056,-0.0506,-0.0499,-0.0501,-0.0385,-0.0369,-0.0459,-0.0455,-0.0284,-0.0266,-0.0249,-0.0169,-0.0169,-0.0162,-0.0158,0.0031,0.0032,0.0033,0,0,0,0,0,0,-0.0596,-0.0596,-0.0564,-0.0565,-0.0559,-0.0508,-0.0511,-0.0501,-0.0475,-0.0384,-0.0364,-0.0445,-0.0283,-0.026,-0.0185,-0.0162,-0.0159,-0.0152,0.0031,0.0031,0.0032,-0.0036,0,0,0,0,0,0,-0.0597,-0.0597,-0.0603,-0.0567,-0.056,-0.0546,-0.0513,-0.05,-0.0479,-0.0472,-0.0365,-0.0344,-0.028,-0.0197,-0.0178,-0.0151,-0.0146,0.003,0.0031,0.0032,-0.0035,-0.0038,-0.004,0,0,0,0,0,-0.0598,-0.0613,-0.0603,-0.0602,-0.0571,-0.0547,-0.0538,-0.0495,-0.048,-0.0467,-0.0399,-0.0347,-0.0176,-0.0191,-0.0168,-0.0139,0.0029,0.0031,0.0032,-0.0033,-0.0037,-0.004,0,0,0,0,0,0,-0.0617,-0.0605,-0.0594,-0.0604,-0.0578,-0.0534,-0.0527,-0.0501,-0.044,-0.0426,-0.0343,-0.0318,-0.0243,-0.0186,-0.0206,-0.008,-0.0063,-0.0057,-0.012,-0.0123,-0.0125,-0.0128,-0.014,0,0,0,0,0,-0.063,-0.0638,-0.0612,-0.062,-0.0612,-0.0571,-0.0557,-0.0524,-0.0473,-0.0446,-0.0379,-0.0298,-0.0221,-0.0171,-0.01,-0.0033,0.0014,0.0002,-0.0001,-0.0004,0.001,0.0067,0.007,0.0037,0.0037,0.0037,0,0,-0.0643,-0.0637,-0.0642,-0.0625,-0.0603,-0.0591,-0.0558,-0.0535,-0.0512,-0.043,-0.0378,-0.0308,-0.0209,-0.0134,-0.0094,-0.0081,0.0032,-0.0002,-0.0005,0.0011,0.0069,0.0072,0.0075,0.0038,0.0038,0.0038,0,0,-0.0671,-0.0667,-0.0679,-0.0661,-0.0634,-0.0605,-0.0603,-0.0557,-0.0523,-0.047,-0.0401,-0.0317,-0.0219,-0.0132,-0.0077,-0.005,0.0008,-0.0034,-0.0036,0.0017,0.002,0.0024,0.0087,0.0096,-0.0027,-0.0027,-0.0027,0,-0.0684,-0.0697,-0.0677,-0.0677,-0.0661,-0.0618,-0.0609,-0.0575,-0.0508,-0.0472,-0.0459,-0.0295,-0.021,-0.0099,-0.0084,-0.0052,-0.0022,-0.0036,0.0012,0.0016,0.0021,0.0085,0.0096,-0.003,-0.003,-0.003,-0.0029,0,-0.0717,-0.0721,-0.0727,-0.0714,-0.0688,-0.0677,-0.0629,-0.0598,-0.0558,-0.0511,-0.0412,-0.0305,-0.0202,-0.0162,-0.0108,-0.0024,-0.0013,-0.001,0.0013,0.002,0.0088,0.0101,-0.0035,-0.0034,-0.0033,-0.0032,0,0,-0.0761,-0.0752,-0.0753,-0.0745,-0.0702,-0.0683,-0.0648,-0.0592,-0.0566,-0.0488,-0.0431,-0.029,-0.0236,-0.017,-0.0091,-0.0027,0.004,-0.001,-0.0006,0.0042,0.0155,0.0167,0.0182,0.0031,0.0033,0.0034,0.0189,0,-0.079,-0.0802,-0.0777,-0.0769,-0.0768,-0.0709,-0.068,-0.0616,-0.0562,-0.0502,-0.0378,-0.0296,-0.0241,-0.0185,-0.0116,0.0001,0.007,-0.0002,0.0154,0.016,0.0159,0.0197,0.0177,0.0312,0.0202,0.0204,0.0206,0,-0.0829,-0.0829,-0.083,-0.0793,-0.0784,-0.0768,-0.0702,-0.0665,-0.057,-0.0524,-0.0426,-0.0343,-0.0202,-0.0179,0.0017,-0.0044,0.0056,0.0138,0.0145,0.0193,0.0196,0.0292,0.0341,0.0228,0.0226,0.0224,0.0223,0,-0.0874,-0.0862,-0.0861,-0.0851,-0.0806,-0.0784,-0.0752,-0.0673,-0.0634,-0.0535,-0.0493,-0.0346,-0.0255,-0.0128,0.0047,0.0028,0.0241,0.0238,0.0349,0.0351,0.039,0.0392,0.0373,0.0372,0.0372,0.0372,0.0371,0,-0.0916,-0.0917,-0.0889,-0.0893,-0.088,-0.0825,-0.0795,-0.0751,-0.0671,-0.0618,-0.0508,-0.0427,-0.0245,-0.0102,0.0039,0.0237,0.0239,0.0371,0.0397,0.0366,0.0363,0.0331,0.0324,0.0377,0.0376,0.0375,0.0374,0,-0.0963,-0.0952,-0.0949,-0.0913,-0.0908,-0.0893,-0.084,-0.0822,-0.0743,-0.0671,-0.0634,-0.0472,-0.0283,-0.01,0.0132,0.0238,0.042,0.0488,0.0444,0.0462,0.0499,0.0487,0.0639,0.064,0.0642,0.0643,0.0644,0,-0.0989,-0.0996,-0.0975,-0.0984,-0.0973,-0.0952,-0.0945,-0.087,-0.084,-0.0688,-0.0652,-0.0459,-0.0307,0.0027,0.0251,0.0502,0.0489,0.061,0.0584,0.0519,0.053,0.0515,0.0501,0.0617,0.0618,0.0619,0.0619,0,-0.1029,-0.1017,-0.1013,-0.1043,-0.1047,-0.1035,-0.1013,-0.0998,-0.0892,-0.0817,-0.0668,-0.053,-0.0192,0.0089,0.0389,0.0522,0.0563,0.0631,0.0595,0.0534,0.0506,0.0513,0.05,0.0625,0.0624,0.0624,0.0623,0.0623,-0.1055,-0.1065,-0.1076,-0.1097,-0.1107,-0.1117,-0.1115,-0.1073,-0.1012,-0.0892,-0.0714,-0.05,-0.0179,0.0241,0.0484,0.0671,0.0662,0.0703,0.0699,0.0694,0.0646,0.0619,0.0752,0.0752,0.0752,0.0752,0.0752,0,-0.1105,-0.1121,-0.1142,-0.1175,-0.1204,-0.1184,-0.1162,-0.1137,-0.1082,-0.0923,-0.0762,-0.0404,-0.0068,0.0234,0.0564,0.0774,0.075,0.078,0.0726,0.0719,0.0714,0.0663,0.0777,0.0777,0.0778,0.0778,0,0,-0.114,-0.118,-0.1189,-0.1258,-0.128,-0.1298,-0.1283,-0.1217,-0.1092,-0.0933,-0.0765,-0.0506,-0.0074,0.0167,0.0455,0.0626,0.0602,0.0622,0.0581,0.0478,0.047,0.0651,0.0564,0,0,0,0,0]}],[{"header":{"parameterUnit":"m.s-1","parameterCategory":2,"la1":30.2991,"la2":30.254,"lo1":-89.0895,"lo2":-89.0444,"dy":0.0017,"dx":0.0017,"nx":28,"ny":28,"refTime":"2023-10-19T03:00:00:Z","depth":"4","parameterNumber":2,"parameterNumberName":"U-component_of_CURRENTS"},"data":[0,0,0,0,0,0,0,0,0,0,0,0,0,0,0,0,0,0,0,0,0,0,0,0,0,0,0,0,0,0,0,0,0,0,0,0,0,0,0,0,0,0,0,0,0,0,0,0,0,0,0,0,0,0,0,0,0,0,-0.153,-0.1531,0,-0.1622,-0.1623,-0.1624,-0.167,-0.167,-0.167,-0.1669,-0.1725,-0.1727,-0.1728,0,0,0,0,0,0,0,0,0,0,0,0,0,-0.1437,-0.1438,-0.153,-0.1531,-0.1531,-0.1621,-0.1623,-0.1625,-0.167,-0.167,-0.167,-0.1669,-0.1724,-0.1726,-0.1728,0,0,0,0,0,0,0,0,0,0,0,0,0,-0.1501,-0.1439,-0.153,-0.1562,-0.1566,-0.1621,-0.1623,-0.1625,-0.167,-0.167,-0.1669,-0.1669,-0.1723,-0.1726,-0.1729,-0.1756,0,0,-0.1737,-0.1738,0,0,0,0,0,0,0,0,-0.1497,-0.1505,-0.1557,-0.156,-0.1564,-0.1631,-0.161,-0.1666,-0.1671,-0.1635,-0.1669,-0.1669,-0.1688,-0.1693,-0.1718,-0.1758,-0.1761,-0.1737,-0.1739,-0.174,-0.1741,0,0,0,0,0,0,0,-0.1493,-0.1502,-0.157,-0.1557,-0.1562,-0.1586,-0.1595,-0.1622,-0.1665,-0.1638,-0.164,-0.1645,-0.169,-0.1715,-0.1719,-0.1761,-0.1737,-0.174,-0.1741,-0.1742,-0.19,-0.1903,0,0,0,0,0,0,-0.1472,-0.1497,-0.1567,-0.1573,-0.1524,-0.1588,-0.1598,-0.1613,-0.1666,-0.1673,-0.1645,-0.1646,-0.1711,-0.1716,-0.1721,-0.179,-0.174,-0.1743,-0.1744,-0.1898,-0.1901,-0.1904,0,0,0,0,0,0,-0.147,-0.1478,-0.1563,-0.1533,-0.1545,-0.1589,-0.1606,-0.1615,-0.1663,-0.1671,-0.1678,-0.1686,-0.1711,-0.1717,-0.1766,-0.1791,-0.1744,-0.1746,-0.1895,-0.1899,-0.1902,-0.1905,0,0,0,0,0,0,-0.1467,-0.1477,-0.15,-0.1532,-0.1546,-0.161,-0.1607,-0.1617,-0.1663,-0.1666,-0.1708,-0.1711,-0.1711,-0.1762,-0.1769,-0.1793,-0.1748,-0.1892,-0.1897,-0.1901,-0.1902,-0.1908,-0.1914,0,0,0,0,0,-0.1464,-0.149,-0.1501,-0.151,-0.157,-0.1611,-0.1622,-0.1653,-0.1665,-0.1695,-0.1722,-0.1711,-0.1798,-0.1766,-0.1773,-0.1799,-0.1889,-0.1895,-0.1901,-0.1899,-0.1907,-0.1914,0,0,0,0,0,0,-0.1462,-0.1498,-0.151,-0.1547,-0.1582,-0.1617,-0.1651,-0.1671,-0.1721,-0.1731,-0.1738,-0.1744,-0.18,-0.1811,-0.1775,-0.1866,-0.1845,-0.1853,-0.1841,-0.1849,-0.1856,-0.1833,-0.1751,0,0,0,0,0,-0.1471,-0.1501,-0.1534,-0.1566,-0.1587,-0.1626,-0.1654,-0.1676,-0.1712,-0.1735,-0.176,-0.1796,-0.1829,-0.1846,-0.1881,-0.1924,-0.1918,-0.1953,-0.1959,-0.1964,-0.1956,-0.1985,-0.1991,-0.1923,-0.1923,-0.1923,0,0,-0.1474,-0.1501,-0.1517,-0.1568,-0.1601,-0.164,-0.1644,-0.1694,-0.173,-0.1732,-0.1798,-0.1822,-0.185,-0.1899,-0.1925,-0.1908,-0.198,-0.1971,-0.1974,-0.1964,-0.1991,-0.1997,-0.2003,-0.1927,-0.1926,-0.1926,0,0,-0.1494,-0.1528,-0.1561,-0.1595,-0.1647,-0.1671,-0.1689,-0.1742,-0.1773,-0.1834,-0.1844,-0.1869,-0.1943,-0.1942,-0.1956,-0.2022,-0.2018,-0.2062,-0.2064,-0.2093,-0.2097,-0.2101,-0.2084,-0.2086,-0.2057,-0.2057,-0.2057,0,-0.1501,-0.1543,-0.1577,-0.1619,-0.1644,-0.1686,-0.1722,-0.1767,-0.1828,-0.1848,-0.186,-0.1945,-0.1952,-0.1987,-0.2007,-0.2028,-0.2046,-0.2022,-0.2096,-0.21,-0.2104,-0.2085,-0.2087,-0.2058,-0.2058,-0.2058,-0.2058,0,-0.1536,-0.1581,-0.1606,-0.1667,-0.1702,-0.1742,-0.179,-0.1832,-0.1872,-0.1907,-0.1968,-0.1985,-0.2024,-0.204,-0.2039,-0.2081,-0.2084,-0.21,-0.2061,-0.211,-0.2088,-0.209,-0.2059,-0.2059,-0.2059,-0.2059,0,0,-0.1511,-0.161,-0.1621,-0.1654,-0.1728,-0.1757,-0.1813,-0.1865,-0.1907,-0.1964,-0.2011,-0.2044,-0.2057,-0.2074,-0.2081,-0.2093,-0.2112,-0.2114,-0.2116,-0.2069,-0.2165,-0.2002,-0.1988,-0.2163,-0.2164,-0.2165,-0.213,0,-0.1527,-0.1602,-0.1648,-0.1715,-0.175,-0.1797,-0.1848,-0.1901,-0.1954,-0.2018,-0.2034,-0.2096,-0.2075,-0.2101,-0.211,-0.213,-0.2125,-0.2118,-0.2149,-0.2149,-0.1975,-0.1988,-0.2168,-0.2132,-0.2132,-0.2132,-0.2133,0,-0.1534,-0.1583,-0.1653,-0.1732,-0.1754,-0.1804,-0.1869,-0.1926,-0.2009,-0.2052,-0.2096,-0.2139,-0.2156,-0.2151,-0.2163,-0.2177,-0.2166,-0.2165,-0.2164,-0.2009,-0.199,-0.2083,-0.2137,-0.2136,-0.2136,-0.2136,-0.2136,0,-0.1478,-0.1578,-0.1632,-0.1662,-0.1765,-0.1799,-0.1852,-0.1933,-0.1986,-0.2082,-0.2127,-0.2174,-0.2199,-0.2215,-0.2185,-0.2205,-0.2196,-0.222,-0.2048,-0.2036,-0.219,-0.2187,-0.222,-0.222,-0.222,-0.2221,-0.2221,0,-0.1453,-0.1498,-0.162,-0.1648,-0.1712,-0.1788,-0.1865,-0.1919,-0.2017,-0.2071,-0.2147,-0.2172,-0.2228,-0.2226,-0.2208,-0.2106,-0.2204,-0.203,-0.2016,-0.2192,-0.219,-0.219,-0.2187,-0.2219,-0.2219,-0.222,-0.222,0,-0.1381,-0.1468,-0.1536,-0.1653,-0.1694,-0.174,-0.1867,-0.1917,-0.2013,-0.2083,-0.2116,-0.2187,-0.2162,-0.2166,-0.2168,-0.2098,-0.2045,-0.1984,-0.2132,-0.2131,-0.1864,-0.1862,-0.1801,-0.1795,-0.179,-0.1786,-0.1782,0,-0.135,-0.1382,-0.1522,-0.1571,-0.1632,-0.1721,-0.1779,-0.1899,-0.1944,-0.2058,-0.2069,-0.2094,-0.211,-0.1954,-0.199,-0.1912,-0.1889,-0.1857,-0.1884,-0.1828,-0.1822,-0.1828,-0.1833,-0.1774,-0.1773,-0.1771,-0.177,0,-0.1275,-0.1343,-0.14,-0.149,-0.157,-0.1642,-0.1727,-0.175,-0.187,-0.1991,-0.1955,-0.1927,-0.188,-0.1842,-0.1771,-0.1732,-0.1886,-0.1804,-0.1815,-0.184,-0.1795,-0.1795,-0.1806,-0.1752,-0.1755,-0.1756,-0.1758,0,-0.1218,-0.1236,-0.1316,-0.138,-0.1473,-0.1498,-0.1577,-0.161,-0.1666,-0.1796,-0.1779,-0.1792,-0.1857,-0.1745,-0.1696,-0.1621,-0.1609,-0.1581,-0.1604,-0.1624,-0.1579,-0.1496,-0.1332,0,0,0,0,0,-0.1144,-0.114,-0.1192,-0.1246,-0.1329,-0.137,-0.1502,-0.1584,-0.1714,-0.164,-0.17,-0.1645,-0.1564,-0.1582,-0.1461,-0.1608,-0.161,-0.1465,-0.159,-0.1654,-0.1674,-0.1636,0,0,0,0,0,0,-0.1093,-0.1128,-0.1136,-0.1101,-0.111,-0.1173,-0.1247,-0.1352,-0.1323,-0.1465,-0.1419,-0.1534,-0.1465,-0.1572,-0.1413,-0.1417,-0.1463,-0.1494,-0.1489,-0.1642,-0.1661,-0.1677,-0.1645,0,0,0,0,0]},{"header":{"parameterUnit":"m.s-1","parameterCategory":2,"la1":30.2991,"la2":30.254,"lo1":-89.0895,"lo2":-89.0444,"dy":0.0017,"dx":0.0017,"nx":28,"ny":28,"refTime":"2023-10-19T03:00:00:Z","depth":"4","parameterNumber":3,"parameterNumberName":"V-component_of_CURRENTS"},"data":[0,0,0,0,0,0,0,0,0,0,0,0,0,0,0,0,0,0,0,0,0,0,0,0,0,0,0,0,0,0,0,0,0,0,0,0,0,0,0,0,0,0,0,0,0,0,0,0,0,0,0,0,0,0,0,0,0,0,-0.0454,-0.0454,0,-0.0432,-0.0432,-0.0432,-0.0395,-0.0394,-0.0393,-0.0392,-0.0348,-0.0348,-0.0348,0,0,0,0,0,0,0,0,0,0,0,0,0,-0.0449,-0.0449,-0.0454,-0.0454,-0.0453,-0.0432,-0.0432,-0.0432,-0.0395,-0.0394,-0.0393,-0.0392,-0.0349,-0.0348,-0.0348,0,0,0,0,0,0,0,0,0,0,0,0,0,-0.0443,-0.0449,-0.0454,-0.0431,-0.0429,-0.0432,-0.0432,-0.0432,-0.0395,-0.0394,-0.0393,-0.0392,-0.0349,-0.0348,-0.0348,-0.0368,0,0,-0.0346,-0.0345,0,0,0,0,0,0,0,0,-0.0443,-0.0443,-0.0435,-0.0433,-0.043,-0.0414,-0.0414,-0.0409,-0.0396,-0.0409,-0.0392,-0.0391,-0.0368,-0.0366,-0.0367,-0.0366,-0.0364,-0.0346,-0.0345,-0.0345,-0.0345,0,0,0,0,0,0,0,-0.0444,-0.0444,-0.0447,-0.0435,-0.0432,-0.0417,-0.0415,-0.0413,-0.0397,-0.0408,-0.0405,-0.0401,-0.0367,-0.0368,-0.0365,-0.0363,-0.0346,-0.0345,-0.0345,-0.0344,-0.0355,-0.0355,0,0,0,0,0,0,-0.0446,-0.0444,-0.0447,-0.0446,-0.0432,-0.0418,-0.0416,-0.0421,-0.0397,-0.0392,-0.0402,-0.0399,-0.0369,-0.0366,-0.0364,-0.0378,-0.0345,-0.0344,-0.0344,-0.0354,-0.0355,-0.0355,0,0,0,0,0,0,-0.0446,-0.0447,-0.0448,-0.0443,-0.0442,-0.0419,-0.0426,-0.0422,-0.0421,-0.0392,-0.0387,-0.0405,-0.0368,-0.0365,-0.0367,-0.0376,-0.0344,-0.0344,-0.0353,-0.0354,-0.0355,-0.0411,0,0,0,0,0,0,-0.0446,-0.0447,-0.0457,-0.0443,-0.0442,-0.0458,-0.0427,-0.0422,-0.042,-0.0416,-0.0394,-0.0388,-0.0367,-0.0368,-0.0366,-0.0374,-0.0343,-0.0352,-0.0354,-0.0355,-0.0408,-0.0414,-0.0418,0,0,0,0,0,-0.0446,-0.046,-0.0457,-0.0458,-0.0454,-0.0459,-0.0458,-0.0437,-0.0421,-0.0431,-0.0413,-0.0389,-0.0373,-0.0368,-0.0366,-0.0374,-0.0352,-0.0353,-0.0355,-0.0406,-0.0413,-0.0418,0,0,0,0,0,0,-0.0461,-0.0458,-0.0454,-0.0466,-0.0467,-0.0452,-0.0456,-0.0445,-0.044,-0.0433,-0.0405,-0.0399,-0.0406,-0.0385,-0.038,-0.038,-0.0356,-0.0357,-0.0396,-0.0402,-0.0407,-0.038,-0.0343,0,0,0,0,0,-0.0471,-0.0483,-0.0476,-0.0489,-0.0489,-0.0476,-0.0476,-0.0465,-0.0456,-0.0452,-0.0439,-0.0421,-0.0412,-0.0402,-0.0397,-0.04,-0.0332,-0.0401,-0.0406,-0.0411,-0.0388,-0.0288,-0.0281,-0.036,-0.036,-0.036,0,0,-0.0483,-0.048,-0.0488,-0.0493,-0.049,-0.0498,-0.0474,-0.0478,-0.0482,-0.0449,-0.0458,-0.0447,-0.042,-0.0424,-0.0423,-0.0405,-0.0359,-0.0413,-0.0417,-0.039,-0.0289,-0.028,-0.0273,-0.0361,-0.0361,-0.0361,0,0,-0.0509,-0.0509,-0.0527,-0.053,-0.0529,-0.0519,-0.0523,-0.0518,-0.0514,-0.0525,-0.0499,-0.0485,-0.0486,-0.0456,-0.0441,-0.0469,-0.0396,-0.0478,-0.0472,-0.0378,-0.0369,-0.0361,-0.0285,-0.0269,-0.047,-0.0471,-0.0471,0,-0.0522,-0.0541,-0.0534,-0.055,-0.0551,-0.053,-0.0547,-0.0543,-0.0542,-0.0533,-0.0534,-0.0501,-0.0492,-0.0459,-0.0473,-0.0478,-0.0414,-0.0454,-0.0381,-0.0371,-0.0361,-0.0285,-0.0267,-0.0473,-0.0473,-0.0473,-0.0473,0,-0.056,-0.0574,-0.0584,-0.0594,-0.06,-0.0608,-0.06,-0.0603,-0.0594,-0.058,-0.0562,-0.054,-0.0504,-0.0513,-0.0504,-0.0442,-0.0418,-0.0406,-0.0361,-0.0356,-0.0278,-0.0258,-0.0478,-0.0476,-0.0476,-0.0475,0,0,-0.0585,-0.0606,-0.061,-0.0618,-0.062,-0.0625,-0.0633,-0.0623,-0.0608,-0.0602,-0.0568,-0.0561,-0.0527,-0.0506,-0.0485,-0.0413,-0.0317,-0.0384,-0.0377,-0.03,-0.0107,-0.0159,-0.0142,-0.0284,-0.0281,-0.0278,-0.0087,0,-0.0614,-0.065,-0.0651,-0.0676,-0.0688,-0.0671,-0.0677,-0.0664,-0.0643,-0.0609,-0.0558,-0.0529,-0.0529,-0.0506,-0.0433,-0.0349,-0.0263,-0.037,-0.0129,-0.0122,-0.016,-0.012,-0.0267,-0.0071,-0.0067,-0.0063,-0.0061,0,-0.0648,-0.0664,-0.0701,-0.0705,-0.0708,-0.0721,-0.0701,-0.07,-0.0645,-0.0624,-0.0564,-0.0518,-0.0428,-0.0422,-0.0234,-0.0299,-0.0199,-0.0128,-0.0118,-0.0123,-0.0135,-0.0071,-0.0024,-0.0027,-0.0029,-0.0032,-0.0034,0,-0.0668,-0.0692,-0.072,-0.0726,-0.0733,-0.0742,-0.0738,-0.0707,-0.0692,-0.0617,-0.0581,-0.0471,-0.0405,-0.0262,-0.0145,-0.0166,0.0074,0.0069,0.0126,0.0123,0.0138,0.0127,0.024,0.024,0.024,0.0239,0.0239,0,-0.069,-0.071,-0.0732,-0.0749,-0.0769,-0.0764,-0.0763,-0.0746,-0.0693,-0.0657,-0.0581,-0.0513,-0.0355,-0.0219,-0.0104,0.0062,0.0118,0.0152,0.0181,0.0103,0.0087,0.0151,0.0138,0.0246,0.0245,0.0243,0.0242,0,-0.0709,-0.0726,-0.0755,-0.0775,-0.0786,-0.0798,-0.0795,-0.0783,-0.0732,-0.0672,-0.0644,-0.0511,-0.0339,-0.0189,0.0045,0.0107,0.0271,0.0321,0.0222,0.0238,0.0253,0.0235,0.043,0.043,0.043,0.043,0.043,0,-0.0722,-0.0741,-0.0782,-0.0809,-0.0825,-0.084,-0.0853,-0.0816,-0.0791,-0.0672,-0.0636,-0.0465,-0.0368,-0.007,0.0074,0.0306,0.0319,0.04,0.0334,0.027,0.0279,0.026,0.0243,0.043,0.043,0.043,0.043,0,-0.0739,-0.0758,-0.0783,-0.0846,-0.0877,-0.0891,-0.0897,-0.0875,-0.0807,-0.0755,-0.0604,-0.0453,-0.026,-0.0064,0.0105,0.0264,0.034,0.0401,0.0402,0.0341,0.0272,0.0277,0.026,0.043,0.043,0.043,0.043,0,-0.0751,-0.0776,-0.0824,-0.0868,-0.0916,-0.0937,-0.0927,-0.0875,-0.083,-0.0692,-0.0637,-0.0431,-0.03,-0.0081,0.0078,0.0217,0.025,0.0274,0.0283,0.0284,0.0155,0.0041,0.018,0,0,0,0,0,-0.0762,-0.0801,-0.0848,-0.0902,-0.0948,-0.0973,-0.0958,-0.0929,-0.0851,-0.0752,-0.0689,-0.051,-0.0254,-0.0133,0.0003,0.0057,0.0251,0.0217,0.0277,0.0431,0.0431,0.0295,0,0,0,0,0,0,-0.0777,-0.083,-0.085,-0.092,-0.0963,-0.1005,-0.0994,-0.094,-0.0865,-0.0767,-0.0623,-0.0514,-0.0262,-0.034,-0.0008,0.0038,0.0086,0.035,0.0352,0.0431,0.0431,0.0431,0.0291,0,0,0,0,0]}]]